Location: Oroua River
(40.4333°S, 175.4333°E)
Time: 14:49:11
(UTC+00:00)

Cosmos 2112 Rocket - Pass Details

Date: 03 February 2023
Orbit: 755 x 787 km, 74.0° (Epoch: 22 March)

Event Time Altitude Azimuth Distance (km) Brightness Sun altitude
Exits shadow 14:08:35 62° 211° (SSW) 892 4.3 -28.8°
Drops below altitude 10° 14:13:24 10° 166° (SSE) 2,381 7.4 -28.4°
Sets 14:15:51 0° 163° (SSE) 3,317 8.5 -28.2°
